Regional Weather Roundup
Issued by NWS

Home | Current Version | Previous Version | Text Only | Print | Product List | Glossary On
Versions: 1 2 3 4 5 6 7 8 9 10 11 12 13 14 15 16 17 18 19 20 21 22 23 24 25 26 27 28 29 30 31 32 33 34 35 36 37 38 39 40 41 42 43 44 45 46 47 48 49 50
000
ASUS43 KDMX 271706
RWRIA

WEATHER ROUNDUP FOR IOWA
NATIONAL WEATHER SERVICE DES MOINES IA
1100 AM CST MON FEB 27 2017

NOTE: "FAIR" INDICATES FEW OR NO CLOUDS BELOW 12,000 FEET WITH NO
SIGNIFICANT WEATHER AND/OR OBSTRUCTIONS TO VISIBILITY.

* - THESE STATIONS ARE NOT NWS STATIONS...THUS NOT UNDER NWS
QUALITY CONTROL.  THEY ALSO DO NOT REPORT WEATHER SUCH
AS PRECIPITATION OR FOG.

IAZ001>003-012>014-020>022-031>034-043>046-271800-
   NORTHWEST IOWA

CITY           SKY/WX    TMP DP  RH WIND       PRES   REMARKS
CARROLL *      SUNNY     37  34  87 S5        29.99F WCI  34
CHEROKEE *     MOSUNNY   35  25  68 S7        29.97S WCI  29
DENISON *      SUNNY     37  27  65 S6        29.97R WCI  33
LE MARS *      SUNNY     36  25  64 S9        29.96S WCI  29
SHELDON *      PTSUNNY   36  30  80 S12       29.93F WCI  27
SIOUX CITY     MOSUNNY   30  24  78 SE9       29.96S WCI  22
SPENCER        MOSUNNY   32  22  66 S7        29.97F WCI  26
STORM LAKE *   SUNNY     32  25  74 S8        29.97F WCI  25
$$

IAZ055>058-069>071-079>083-090>094-271800-
   SOUTHWEST IOWA

CITY           SKY/WX    TMP DP  RH WIND       PRES   REMARKS
ATLANTIC *     SUNNY     41  34  75 S12       30.01R
AUDUBON *      SUNNY     43  34  70 S6        30.00S
CLARINDA *     SUNNY     46  36  66 S9        30.03F
COUNCIL BLFS * SUNNY     43  34  70 SE6       29.98F
CRESTON *      SUNNY     45  34  65 S13       30.03F
HARLAN  *      SUNNY     39  34  81 S9        30.03R WCI  33
LAMONI         SUNNY     39  34  82 S8        30.04S WCI  33
RED OAK *      SUNNY     45  36  70 S12       30.01F
SHENANDOAH *   SUNNY     46  34  61 SE12      30.00F
$$

IAZ047>049-059>061-072>074-084-271800-
   CENTRAL IOWA

CITY           SKY/WX    TMP DP  RH WIND       PRES   REMARKS
AMES           SUNNY     41  36  82 SE8       30.02F
ANKENY *       SUNNY     43  32  65 S8        30.04F
BOONE *        SUNNY     39  36  87 S7        30.01S WCI  34
CHARITON *     SUNNY     46  34  61 S10       30.04F
DES MOINES     PTSUNNY   41  34  76 S5        30.04S
GRINNELL*      SUNNY     43  34  71 SE9       30.07S
KNOXVILLE *    SUNNY     46  32  57 S8G14     30.04F
MARSHALLTOWN   SUNNY     43  36  76 S9        30.03F
NEWTON *       SUNNY     43  36  75 S10       30.04F
PELLA *        SUNNY     45  35  66 S8        30.07F
PERRY *          N/A     39  35  84 S8        30.02R WCI  34
$$

IAZ004>006-015-016-023>025-035-036-271800-
   NORTH CENTRAL IOWA

CITY           SKY/WX    TMP DP  RH WIND       PRES   REMARKS
ALGONA *       SUNNY     28  25  86 S10       30.00S WCI  19
CLARION *      SUNNY     34  30  86 S10       30.01S WCI  26
ESTHERVILLE    SUNNY     30  24  78 S14       29.96F WCI  19
FORT DODGE *   SUNNY     37  25  60 SW5       30.01F WCI  34
MASON CITY     SUNNY     27  23  85 S9        30.03S WCI  18
FOREST CITY *    N/A     34  27  75 S9        30.01S WCI  26
WEBSTER CITY * SUNNY     36  28  75 SE8       29.99F WCI  29
IOWA FALLS *     N/A     38  32  78 SE8       30.03F WCI  33
$$

IAZ007>011-017>019-026>030-037>042-050>054-066-271800-
   NORTHEAST IOWA

CITY           SKY/WX    TMP DP  RH WIND       PRES   REMARKS
CEDAR RAPIDS   SUNNY     44  36  73 S10       30.08S
CHARLES CITY * SUNNY     36  30  80 SE6       30.04F WCI  31
CLINTON *      SUNNY     46  36  68 S13       30.12S
DECORAH *      SUNNY     36  27  69 S8        30.04S WCI  29
DUBUQUE        PTSUNNY   38  35  89 S13       30.09S WCI  30
MONTICELLO *   PTSUNNY   39  36  87 S10       30.10S WCI  32
OELWEIN *      SUNNY     39  36  87 S12       30.06S WCI  32
WATERLOO       SUNNY     40  32  73 S9        30.04F WCI  34
$$

IAZ064-065-067-068-078-271800-
   EAST CENTRAL IOWA

CITY           SKY/WX    TMP DP  RH WIND       PRES   REMARKS
DAVENPORT      SUNNY     47  35  63 S12       30.11F
IOWA CITY      SUNNY     48  34  58 SW12      30.11F
MUSCATINE *    SUNNY     46  36  66 S12       30.12S
QUAD CITIES    SUNNY     48  35  60 S14       30.11F
$$

IAZ062-063-075>077-085>089-095>099-271800-
   SOUTHEAST IOWA

CITY           SKY/WX    TMP DP  RH WIND       PRES   REMARKS
BURLINGTON     SUNNY     49  37  63 S9        30.11F
FAIRFIELD *    SUNNY     48  34  57 S12       30.09S
FORT MADISON * SUNNY     52  39  62 SE9       30.11F
KEOKUK *       SUNNY     52  34  50 S9        30.10F
CENTERVILLE *    N/A     45  45 100 S7        30.08F
OTTUMWA        SUNNY     44  35  70 S12       30.08F
WASHINGTON *   SUNNY     48  37  66 S10       30.11S
$$

ABBREVIATIONS USED IN REMARKS
   TC - TEMPERATURES IN CELSIUS
  WCI - WIND CHILL INDEX
   HX - HEAT INDEX
  VSB - VISIBILITY
$$




USA.gov is the U.S. government's official web portal to all federal, state and local government web resources and services.